Temp
11 11 11 11 11 12 12 11 12 12 12 12 12 11 11 10 10 10 8 9 10 10 11 11 10 11 12 13 13 13 17 17 17 16 17 16 16 16 16 16 16 16 16 16 15
11 11 11 11 11 11 11 11 12 12 12 12 11 11 11 10 9 8 9 9 10 10 10 10 11 12 14 13 13 16 16 17 16 16 16 16 15 15 15 16 17 16 16 16 15
11 11 11 11 11 11 11 11 11 11 12 12 12 11 11 10 9 7 9 9 10 10 10 10 10 12 14 13 13 14 16 15 15 14 14 14 14 14 15 16 16 14 14 14 14
10 11 11 11 11 11 11 11 11 11 11 11 11 11 11 10 13 8 9 9 9 10 10 10 11 13 14 14 13 14 14 14 13 13 12 14 14 14 15 15 12 13 12 13 13
10 11 11 11 11 11 11 11 11 11 11 11 10 10 10 10 7 8 9 9 9 10 9 10 11 12 14 13 13 13 14 12 13 12 12 12 13 14 14 14 11 12 11 11 10
10 10 10 10 10 10 10 10 10 11 11 10 10 10 9 11 8 8 9 9 9 9 9 9 10 10 12 12 13 12 12 13 12 13 12 12 13 12 14 11 11 11 11 10 10
9 10 10 10 10 9 10 10 10 10 10 10 10 9 9 7 8 8 8 8 9 9 8 9 9 10 10 12 10 11 12 14 14 13 13 11 13 13 11 10 12 11 11 10 9
9 9 9 9 9 9 9 9 9 10 10 10 9 9 7 7 6 7 8 8 8 8 9 9 9 9 10 9 11 12 12 14 14 13 12 12 14 14 9 10 11 11 10 9 9
9 9 8 9 9 9 9 9 9 9 9 9 8 8 7 7 6 7 7 7 7 8 8 8 8 9 9 11 13 12 14 14 15 12 12 12 14 13 10 9 11 10 9 8 8
9 9 8 8 8 8 8 8 8 8 8 8 8 8 6 7 6 6 7 7 7 7 8 8 9 11 11 12 13 14 13 14 13 13 12 12 13 14 12 8 10 9 8 8 7
8 8 8 8 8 8 8 7 6 6 6 5 6 6 6 5 6 6 6 6 7 8 10 9 10 12 14 13 12 11 11 12 13 13 9 11 13 14 13 9 9 9 8 7 6
8 8 8 7 8 8 8 6 8 7 6 5 5 5 5 5 7 6 6 7 8 10 9 9 11 11 9 9 9 10 10 11 12 12 9 11 12 13 14 10 8 7 7 6 5
7 7 7 7 7 7 7 7 7 7 9 5 4 5 5 6 7 7 6 7 9 9 9 10 10 8 8 9 8 9 9 10 11 11 11 10 10 12 13 9 6 5 5 4 4
7 7 7 7 7 7 7 7 7 7 10 7 6 5 5 5 7 5 5 7 8 9 9 9 9 7 8 8 9 8 11 10 9 9 9 9 9 12 13 8 7 6 5 5 4
7 6 6 6 6 6 7 7 7 6 10 6 5 4 4 6 6 5 5 6 8 8 7 9 7 7 7 9 9 9 8 8 9 8 9 10 8 12 11 10 8 7 5 4 3
6 6 6 5 6 6 7 6 6 7 10 4 5 6 6 6 6 5 6 5 5 7 7 8 6 7 9 8 8 8 8 8 8 8 6 9 10 11 12 10 11 7 5 3 3
5 5 5 5 5 6 6 6 6 8 4 4 5 5 7 6 6 6 7 7 7 6 8 8 7 7 7 7 7 7 8 7 6 5 6 7 8 10 11 9 9 7 5 3 3
4 4 4 5 5 5 5 6 7 4 4 4 5 5 6 6 6 6 6 7 7 6 7 8 8 6 7 8 8 7 7 7 6 8 8 6 6 10 5 5 6 6 4 3 3
2 3 3 4 4 4 4 4 7 5 4 4 4 4 4 4 5 5 6 7 6 6 7 8 7 6 6 6 7 7 6 7 5 5 3 7 9 5 4 4 4 4 3 3 2
1 1 2 3 3 3 2 6 4 5 4 5 7 5 5 2 5 5 6 5 5 3 4 5 5 5 5 5 6 6 7 5 5 4 5 7 8 8 5 4 4 4 4 3 2
1 1 1 2 2 3 3 4 3 2 3 5 5 2 5 2 4 4 6 3 4 3 3 5 4 6 5 6 7 5 4 4 5 5 5 5 7 7 6 6 4 4 4 4 2
-0 0 -0 1 1 -2 2 1 2 2 1 3 4 4 3 2 2 4 5 5 3 3 3 4 3 4 6 5 3 3 4 5 4 4 6 5 5 6 5 5 5 4 4 3 2
-1 -2 -1 -0 1 0 -2 1 2 1 2 2 3 3 1 1 3 2 3 1 1 3 2 2 2 3 5 4 3 2 4 4 3 0 2 3 5 4 3 3 3 4 3 2 1
1 -1 -3 -2 -3 1 0 1 1 -0 1 2 1 1 0 -1 -2 -0 1 1 -0 1 0 1 1 2 4 5 4 2 3 3 1 0 2 3 3 5 4 2 3 2 3 2 1
0 0 -1 -2 -2 -1 1 1 0 -1 0 1 -0 2 1 -1 -3 -2 0 -0 -0 -0 0 1 -1 -0 -0 1 1 1 1 1 1 -0 -0 2 1 2 2 1 1 1 2 2 1
0 -2 -3 -4 -1 0 1 -0 0 -1 -0 0 -0 2 1 -0 2 -1 -2 -1 0 -1 -1 -2 0 -2 -3 0 0 -2 -0 0 1 -0 -0 0 0 3 3 3 1 -0 -1 -1 -1
-0 0 1 -3 -1 0 2 0 1 0 -1 0 0 1 0 0 -1 -1 -1 -1 -1 -2 -2 -2 -1 -3 -1 -3 -3 -3 -1 0 0 0 -1 -2 -0 1 -0 0 -1 -1 -2 -3 -2
Height
1532 1531 1531 1531 1531 1530 1528 1528 1528 1527 1526 1526 1525 1525 1525 1526 1528 1529 1530 1531 1529 1529 1530 1530 1533 1532 1532 1532 1532 1531 1524 1520 1524 1526 1523 1527 1528 1527 1528 1527 1525 1523 1523 1522 1520
1532 1531 1530 1530 1530 1530 1529 1529 1529 1529 1528 1528 1527 1527 1527 1528 1530 1531 1532 1531 1530 1530 1531 1533 1533 1533 1531 1532 1533 1529 1522 1523 1528 1528 1527 1527 1528 1528 1528 1524 1522 1521 1522 1521 1520
1531 1530 1530 1529 1530 1530 1529 1528 1528 1528 1528 1527 1527 1527 1527 1528 1532 1534 1534 1533 1531 1530 1531 1533 1534 1533 1532 1532 1533 1531 1523 1529 1528 1529 1531 1530 1528 1527 1525 1523 1522 1525 1523 1522 1519
1532 1530 1530 1529 1529 1530 1530 1529 1528 1527 1527 1526 1526 1526 1527 1527 1530 1532 1533 1534 1534 1532 1532 1535 1537 1534 1533 1532 1534 1531 1532 1531 1530 1531 1532 1530 1528 1526 1524 1522 1524 1523 1521 1520 1518
1530 1530 1529 1529 1529 1529 1529 1529 1528 1528 1527 1527 1527 1528 1528 1530 1532 1531 1533 1534 1534 1534 1534 1534 1538 1536 1532 1533 1533 1531 1528 1530 1531 1531 1531 1530 1528 1526 1522 1521 1522 1521 1520 1518 1517
1530 1529 1529 1528 1528 1528 1528 1528 1528 1528 1527 1526 1528 1529 1530 1531 1532 1532 1533 1534 1535 1535 1534 1535 1536 1538 1535 1534 1534 1533 1533 1529 1528 1528 1528 1529 1525 1525 1519 1521 1521 1520 1518 1517 1515
1528 1528 1528 1528 1526 1527 1527 1527 1527 1527 1526 1527 1527 1529 1533 1534 1531 1531 1531 1534 1536 1535 1536 1535 1536 1538 1538 1536 1536 1534 1531 1526 1525 1525 1526 1528 1520 1518 1521 1521 1519 1519 1518 1516 1514
1527 1528 1526 1526 1527 1526 1526 1526 1526 1526 1526 1526 1527 1528 1532 1532 1533 1532 1533 1534 1537 1537 1535 1536 1537 1539 1539 1539 1536 1533 1530 1520 1519 1526 1525 1527 1512 1514 1520 1520 1518 1517 1517 1514 1513
1526 1526 1528 1525 1525 1526 1526 1526 1526 1527 1527 1527 1529 1529 1533 1533 1534 1532 1533 1535 1537 1538 1536 1536 1537 1539 1540 1535 1530 1529 1519 1515 1515 1523 1525 1524 1512 1513 1518 1519 1517 1515 1515 1514 1512
1526 1525 1524 1526 1524 1525 1526 1526 1525 1527 1528 1529 1530 1535 1535 1536 1534 1534 1534 1536 1538 1538 1538 1538 1537 1536 1534 1532 1522 1516 1520 1517 1521 1520 1523 1520 1513 1510 1512 1518 1516 1515 1515 1513 1513
1524 1524 1524 1525 1524 1525 1526 1527 1530 1530 1528 1531 1534 1534 1535 1536 1536 1536 1536 1536 1539 1540 1536 1538 1535 1529 1522 1525 1528 1529 1527 1523 1517 1519 1526 1516 1509 1506 1507 1514 1513 1514 1514 1513 1512
1522 1523 1523 1524 1524 1524 1526 1527 1525 1527 1530 1529 1530 1533 1534 1535 1537 1537 1538 1540 1539 1535 1539 1538 1530 1528 1533 1534 1534 1531 1527 1521 1516 1519 1525 1514 1505 1502 1501 1507 1511 1513 1514 1514 1513
1522 1522 1522 1523 1522 1523 1524 1525 1526 1526 1528 1532 1532 1533 1534 1536 1536 1538 1540 1539 1539 1536 1536 1532 1531 1535 1535 1534 1535 1530 1528 1524 1521 1520 1518 1516 1500 1488 1491 1504 1511 1513 1513 1514 1513
1519 1520 1520 1522 1524 1522 1523 1524 1524 1527 1523 1531 1532 1534 1535 1535 1537 1537 1538 1541 1541 1537 1537 1534 1534 1536 1535 1535 1532 1530 1523 1525 1526 1526 1518 1518 1506 1488 1486 1502 1508 1510 1511 1513 1513
1518 1518 1518 1519 1522 1520 1524 1524 1525 1528 1522 1534 1533 1533 1534 1536 1536 1538 1539 1541 1538 1537 1542 1531 1535 1535 1534 1530 1530 1525 1528 1526 1526 1524 1519 1511 1518 1484 1488 1493 1500 1506 1511 1513 1514
1514 1516 1516 1518 1519 1521 1522 1524 1526 1531 1517 1532 1533 1532 1534 1535 1535 1537 1538 1540 1541 1540 1538 1535 1537 1536 1531 1532 1533 1533 1531 1528 1527 1525 1523 1505 1502 1487 1480 1492 1491 1504 1510 1513 1514
1512 1514 1515 1516 1518 1520 1521 1524 1530 1523 1533 1532 1529 1531 1531 1533 1536 1536 1536 1536 1534 1537 1530 1531 1531 1532 1534 1532 1533 1535 1531 1528 1524 1531 1515 1508 1504 1488 1490 1497 1498 1504 1510 1513 1514
1510 1511 1512 1514 1517 1519 1523 1525 1525 1523 1527 1530 1529 1530 1528 1531 1533 1535 1534 1532 1534 1537 1533 1524 1521 1532 1532 1531 1527 1529 1531 1529 1520 1507 1503 1514 1509 1483 1503 1504 1503 1506 1510 1513 1514
1508 1509 1511 1513 1516 1519 1524 1525 1511 1515 1523 1525 1531 1530 1532 1534 1534 1535 1532 1529 1534 1537 1533 1525 1524 1533 1535 1534 1534 1529 1533 1530 1531 1527 1537 1505 1492 1504 1505 1507 1509 1511 1512 1512 1513
1505 1508 1509 1512 1514 1519 1524 1513 1515 1516 1519 1521 1515 1522 1524 1536 1532 1531 1527 1533 1536 1540 1540 1536 1533 1533 1535 1536 1534 1532 1533 1533 1533 1531 1516 1494 1488 1486 1498 1504 1509 1510 1509 1510 1512
1505 1507 1508 1511 1515 1519 1517 1513 1514 1516 1519 1518 1518 1527 1524 1532 1530 1532 1528 1536 1537 1540 1540 1538 1539 1530 1534 1530 1524 1530 1533 1534 1528 1521 1513 1504 1487 1492 1494 1496 1502 1504 1506 1508 1510
1501 1505 1506 1509 1516 1517 1514 1513 1514 1517 1520 1519 1519 1520 1524 1529 1532 1531 1527 1532 1538 1539 1539 1538 1539 1533 1525 1529 1532 1532 1527 1526 1527 1516 1502 1505 1489 1494 1497 1499 1499 1501 1503 1505 1508
1497 1502 1505 1507 1508 1511 1513 1511 1513 1516 1518 1520 1520 1521 1528 1530 1529 1532 1532 1539 1539 1539 1540 1541 1540 1535 1521 1530 1531 1532 1524 1526 1525 1533 1514 1511 1490 1498 1501 1500 1500 1500 1502 1504 1506
1493 1500 1506 1507 1504 1502 1505 1507 1511 1514 1515 1518 1521 1524 1528 1532 1537 1536 1535 1539 1539 1540 1541 1542 1541 1534 1524 1518 1523 1528 1524 1525 1530 1526 1508 1499 1494 1494 1496 1498 1499 1499 1500 1503 1505
1484 1485 1489 1497 1498 1500 1500 1502 1506 1511 1514 1516 1520 1519 1522 1533 1538 1537 1535 1539 1540 1540 1542 1543 1541 1538 1533 1529 1530 1527 1526 1522 1522 1519 1520 1497 1500 1492 1494 1496 1497 1498 1498 1498 1501
1474 1479 1484 1489 1489 1497 1499 1501 1500 1506 1508 1511 1514 1512 1518 1522 1520 1527 1531 1535 1533 1541 1543 1544 1535 1540 1538 1530 1529 1527 1521 1518 1513 1510 1507 1501 1492 1491 1491 1492 1492 1494 1495 1496 1497
1464 1469 1474 1486 1488 1492 1488 1493 1494 1498 1507 1505 1507 1512 1519 1520 1522 1525 1528 1529 1532 1535 1539 1541 1536 1544 1526 1536 1535 1526 1509 1503 1501 1501 1505 1501 1486 1491 1490 1490 1491 1491 1493 1493 1494
Wind_Speed
6 6 7 6 5 4 4 5 5 4 3 2 2 2 2 3 5 6 3 2 1 1 3 3 2 1 3 2 1 1 4 3 3 4 5 2 6 9 10 14 12 9 12 13 15
5 4 3 3 4 5 5 5 5 5 5 5 5 4 4 5 9 6 3 3 3 2 4 0 0 1 2 1 0 5 3 4 4 5 7 7 8 11 10 12 14 12 14 14 15
4 4 4 4 5 3 3 3 4 5 4 4 3 3 4 6 5 4 3 4 4 4 4 1 1 1 1 2 0 1 3 3 2 4 7 10 10 5 9 9 11 15 19 18 16
5 4 4 3 3 3 4 3 3 3 3 2 2 3 5 6 1 1 2 3 3 4 4 1 2 1 1 2 1 6 3 5 4 2 6 11 13 12 13 9 8 11 13 13 13
4 4 3 3 2 2 2 3 4 5 5 4 3 4 6 5 4 4 2 1 2 1 2 2 2 1 2 1 4 7 3 5 7 9 13 14 16 14 14 7 9 9 9 10 11
4 4 3 2 1 2 2 3 4 4 3 3 3 4 5 3 4 3 1 1 1 1 1 1 1 2 1 2 5 2 8 11 9 9 10 10 14 4 3 8 10 9 9 10 10
3 2 1 1 0 1 2 3 3 2 2 2 4 6 5 4 4 3 2 0 1 4 2 3 2 2 1 2 3 6 8 8 10 6 5 6 12 10 4 8 9 10 11 11 10
4 3 1 0 1 1 2 2 2 2 2 3 5 7 3 6 4 3 2 2 1 2 4 4 3 1 2 2 3 5 5 6 8 4 4 3 14 7 3 7 10 10 11 12 11
3 2 1 1 1 1 1 1 1 1 2 3 4 6 3 5 3 3 3 2 1 1 2 3 3 2 2 5 6 6 8 7 5 5 3 8 11 5 2 8 11 10 10 11 11
4 2 1 1 1 1 0 1 1 2 2 3 4 2 4 2 3 3 3 4 1 2 2 2 2 6 5 7 5 9 7 6 9 4 7 13 18 16 7 8 9 8 8 9 11
3 2 1 1 1 1 2 3 3 2 5 4 3 4 5 3 4 2 4 3 1 3 4 1 5 8 7 7 9 9 10 14 13 7 7 15 17 15 13 9 9 7 6 6 8
5 3 3 2 2 3 4 3 4 6 5 3 4 4 5 5 2 2 5 2 3 6 2 4 9 3 2 4 6 9 12 14 12 7 6 14 18 17 15 13 8 6 3 4 6
6 5 4 3 3 4 5 5 5 7 1 2 2 3 3 4 1 4 2 0 4 5 7 10 3 3 2 5 7 10 13 14 15 12 14 15 17 20 14 6 7 5 2 2 5
7 7 6 5 3 5 5 6 7 7 3 4 3 0 2 2 3 2 3 1 3 5 4 8 2 6 8 11 9 11 5 10 11 8 6 1 9 14 9 10 10 7 5 1 4
10 9 8 7 5 7 6 6 7 3 4 4 3 4 3 2 4 2 4 2 5 3 3 2 3 5 6 6 5 3 3 4 8 11 13 13 7 6 3 12 12 11 6 3 3
11 10 10 9 8 7 8 8 6 2 5 4 2 4 5 2 3 3 2 2 1 4 7 13 0 4 9 3 7 2 4 6 5 6 7 15 13 9 6 3 8 11 9 6 4
12 12 12 10 9 10 11 9 2 3 1 4 4 5 5 4 4 4 5 6 4 2 4 3 10 3 6 7 3 5 6 3 4 4 6 6 7 14 6 4 4 11 11 8 5
13 13 12 11 11 13 14 2 4 2 2 1 3 5 4 6 3 4 3 5 8 4 4 4 4 5 6 9 6 7 8 5 7 9 12 4 6 3 5 3 2 11 11 8 6
14 13 12 13 14 16 5 2 4 3 6 10 5 4 5 4 2 5 6 3 2 8 5 3 3 3 2 2 2 2 6 6 11 10 6 10 18 4 4 3 6 9 11 11 8
16 13 13 14 16 15 1 4 3 3 6 6 6 4 5 6 7 7 7 2 3 2 1 2 5 2 2 2 7 6 5 4 4 6 15 14 17 12 6 8 9 12 14 12 10
17 8 13 16 17 6 3 4 3 5 4 6 4 4 2 6 7 5 2 3 2 4 5 1 1 2 1 7 8 5 4 7 8 8 13 16 13 3 1 7 12 16 16 14 11
13 4 18 22 6 2 3 4 3 6 3 2 2 3 5 6 5 5 5 0 4 7 4 2 2 5 11 3 3 4 8 12 10 17 14 13 16 5 2 5 10 16 16 14 12
14 5 19 24 5 4 1 3 4 5 5 4 4 2 2 4 3 3 3 3 5 5 4 4 3 5 3 3 4 6 9 12 8 4 18 15 16 6 3 5 8 12 15 15 14
11 4 4 11 4 3 6 5 6 2 5 4 4 5 4 2 1 3 6 3 4 4 2 3 4 7 12 17 9 8 10 11 9 8 15 17 22 15 9 6 8 9 14 16 15
12 5 9 6 10 5 6 8 7 7 4 8 3 7 6 4 2 4 4 4 4 4 4 3 5 6 12 18 16 18 19 20 17 17 13 24 19 17 9 5 11 14 14 17 17
13 8 8 4 9 16 9 9 11 5 10 6 5 11 9 5 6 7 7 4 4 5 6 4 4 1 6 12 11 17 21 21 23 23 22 25 29 19 28 24 18 16 15 13 13
24 16 10 10 8 10 8 8 11 13 8 3 10 6 10 9 4 5 4 4 5 7 10 6 3 1 8 4 8 11 14 18 19 18 13 18 25 17 13 15 9 11 15 16 14
Wind_Direction
355 5 2 359 351 351 10 21 16 14 19 30 32 79 113 112 95 75 54 34 18 346 354 18 1 12 58 50 42 262 247 270 329 305 13 40 330 313 316 287 299 300 302 308 324
341 350 357 347 349 0 13 9 358 356 359 9 19 43 78 94 91 69 61 54 53 77 61 19 224 9 134 114 284 268 265 32 4 332 309 313 311 310 305 309 298 315 309 307 312
339 346 355 357 359 1 7 11 5 5 15 26 31 66 95 117 105 27 45 61 87 97 93 123 201 227 174 202 187 264 292 37 293 316 306 301 294 310 293 295 340 320 317 317 307
343 351 348 6 21 2 354 2 2 358 2 33 60 89 111 117 122 186 76 64 61 85 88 49 293 230 243 217 252 262 290 289 300 306 298 289 301 287 280 284 320 318 329 334 334
334 339 346 4 17 5 349 338 353 352 7 23 58 105 124 100 112 149 128 70 47 69 106 88 282 290 235 223 237 249 262 269 271 278 280 285 277 272 273 282 307 307 327 340 335
330 342 350 4 18 358 342 348 359 2 23 44 84 116 111 160 150 151 128 354 252 166 144 90 214 276 214 249 259 336 286 275 275 273 272 275 281 283 202 314 296 304 312 324 330
323 339 339 318 58 9 352 357 358 14 41 63 106 113 63 126 153 135 119 26 201 165 117 183 159 268 275 255 280 283 287 274 248 245 268 286 263 231 304 314 291 300 308 314 318
315 323 324 273 303 318 347 2 18 50 77 104 118 113 107 154 139 128 117 83 142 163 162 163 128 179 302 293 255 263 258 264 133 228 188 244 280 144 309 312 301 307 311 314 316
282 300 314 217 245 306 328 2 22 55 81 98 101 124 122 157 139 151 143 143 173 159 131 136 121 236 229 243 254 208 274 232 263 187 288 226 284 141 260 303 298 308 317 320 323
267 254 201 206 193 208 108 103 62 58 58 75 102 129 127 155 161 131 140 146 169 151 128 165 198 243 226 227 263 305 248 251 265 149 251 267 267 272 265 289 288 302 315 328 334
239 240 236 236 174 177 155 119 78 74 68 82 63 88 107 139 129 132 146 113 140 234 243 170 237 233 264 246 311 292 283 278 280 287 295 269 276 282 269 257 265 283 311 332 348
224 228 219 214 186 173 169 202 191 151 104 108 115 103 144 153 153 161 159 209 225 246 213 216 246 5 341 283 264 263 269 271 284 288 267 282 280 277 261 238 256 265 285 343 356
224 223 212 205 185 176 179 188 172 157 193 91 133 145 150 168 212 174 170 172 263 241 236 263 20 69 230 245 260 257 267 279 282 300 270 273 281 260 237 205 219 223 216 19 21
216 216 206 199 191 179 167 168 163 163 228 150 171 170 147 166 182 165 175 255 227 280 268 268 51 253 265 266 270 285 313 269 277 288 279 142 289 290 203 205 211 204 195 137 52
213 205 198 189 176 170 167 157 148 133 277 100 133 157 171 201 125 122 179 189 266 250 245 66 214 225 248 255 227 287 349 284 278 278 290 266 248 276 225 217 206 198 185 156 76
208 203 193 185 187 177 160 148 125 66 244 141 134 160 169 166 132 128 164 190 294 269 244 269 276 262 245 305 250 3 283 265 268 276 259 258 235 278 293 283 210 177 186 164 120
208 200 191 183 183 168 154 132 64 204 39 172 171 182 204 157 166 199 196 198 223 245 228 220 219 215 243 253 191 228 264 283 242 220 256 23 289 250 315 12 311 180 180 164 140
206 195 190 184 170 161 151 138 210 80 185 136 140 154 191 161 181 184 214 248 210 235 289 279 239 203 159 242 330 217 219 260 287 291 311 108 251 293 21 350 232 170 169 166 157
197 186 185 178 170 163 171 165 218 168 147 159 128 173 191 194 248 199 223 264 358 208 234 274 232 113 30 334 275 105 223 281 283 265 272 264 274 200 93 119 161 173 183 179 174
188 174 184 177 169 163 114 244 176 129 141 175 194 199 180 178 188 201 200 115 176 247 204 63 283 70 72 249 226 242 10 252 206 270 273 275 278 271 186 202 204 199 201 191 188
174 159 184 168 158 167 207 222 181 174 176 195 193 137 180 171 202 202 178 128 191 152 207 229 247 169 181 208 269 200 233 225 279 263 276 280 271 44 275 219 210 214 210 203 198
172 169 171 161 151 189 201 188 146 165 190 150 141 118 174 165 178 221 220 289 178 173 180 159 248 264 274 60 309 282 276 266 248 264 251 260 270 155 199 277 233 219 215 209 207
154 115 169 172 188 202 156 156 185 156 187 175 161 103 91 155 205 203 201 162 188 198 173 185 200 289 253 232 218 246 243 241 271 287 262 265 274 105 284 276 258 239 219 212 218
159 134 152 205 241 200 158 181 173 158 154 145 120 111 127 129 85 190 210 162 195 218 129 157 214 240 264 284 328 275 264 254 232 261 268 260 273 277 240 241 247 242 232 225 227
182 176 173 181 221 197 198 157 150 167 185 170 148 205 161 146 166 216 183 168 196 189 180 230 243 229 258 274 286 278 273 266 253 246 254 269 273 268 284 264 248 255 242 229 229
172 161 155 136 151 180 192 201 175 160 160 190 203 190 181 173 194 186 154 193 192 174 187 190 259 317 278 271 274 275 268 268 259 255 258 260 266 270 278 275 252 247 252 248 236
200 179 163 161 154 174 207 179 194 147 204 148 192 144 197 219 130 81 122 127 160 173 189 179 217 192 271 21 308 274 267 260 256 251 251 259 262 297 286 281 289 256 255 254 257